Change the Weather History Date:

Friday, August 2, 2013

  Actual Average (KSFM) Record (KSFM)
Temperature  
Mean Temperature 73 °F -  
Max Temperature 82 °F 78 °F 96 °F (2006)
Min Temperature 64 °F 55 °F 46 °F (1998)
Cooling Degree Days 8    
Growing Degree Days 23 (Base 50)    
Moisture  
Dew Point 62 °F    
Average Humidity 82    
Maximum Humidity 97    
Minimum Humidity 39    
Precipitation  
Precipitation 0.58 in - - ()
Sea Level Pressure  
Sea Level Pressure 29.81 in    
Wind  
Wind Speed 3 mph (South)    
Max Wind Speed 8 mph    
Max Gust Speed -    
Visibility 6 miles    
Events Rain    
Averages and records for this station are not official NWS values.
T = Trace of Precipitation, MM = Missing Value Source: NWS Daily Summary

Daily Weather History Graph

Daily Weather History Graph

Search for Another Location

Airport or City:

Trip Planner

Search our weather history database for the weather conditions in past years. The results will help you decide how hot, cold, wet, or windy it might be!

Date:

Astronomy

Aug. 02, 2013 Rise Set
Actual Time 5:35 AM EDT 8:04 PM EDT
Civil Twilight 5:02 AM EDT 8:36 PM EDT
Nautical Twilight 4:22 AM EDT 9:16 PM EDT
Astronomical Twilight 3:37 AM EDT 10:01 PM EDT
Moon 1:52 AM EDT (8/2) 5:00 PM EDT (8/2)
Length of Visible Light 15h 33m
Length of Day
14h 28m
Waning Crescent, 16% of the Moon is Illuminated
Aug 2
Waning Crescent
Aug 6
New
Aug 14
First Quarter
Aug 20
Full
Aug 28
Last Quarter

Hourly Weather History & Observations

Time (EDT) Temp. Heat Index Dew Point Humidity Pressure Visibility Wind Dir Wind Speed Gust Speed Precip Events Conditions
12:51 AM 64.9 °F - 63.0 °F 93% 29.86 in 5.0 mi Calm Calm - 0.03 in Rain Light Rain
1:25 AM 64.4 °F - 62.6 °F 94% 29.86 in 2.0 mi Calm Calm - 0.07 in Rain Heavy Rain
1:33 AM 64.4 °F - 62.6 °F 94% 29.86 in 1.5 mi South 3.5 mph - 0.12 in Rain Heavy Rain
1:40 AM 64.4 °F - 62.6 °F 94% 29.85 in 1.8 mi SSE 3.5 mph - 0.16 in Rain Heavy Rain
1:51 AM 64.0 °F - 63.0 °F 96% 29.83 in 2.0 mi SSE 5.8 mph - 0.21 in Rain Heavy Rain
2:00 AM 64.4 °F - 62.6 °F 94% 29.84 in 5.0 mi South 4.6 mph - 0.00 in Rain Light Rain
2:07 AM 64.4 °F - 62.6 °F 94% 29.84 in 3.0 mi SSE 4.6 mph - 0.01 in Rain Light Rain
2:19 AM 64.4 °F - 62.6 °F 94% 29.83 in 4.0 mi South 4.6 mph - 0.02 in Rain Rain
2:32 AM 64.4 °F - 62.6 °F 94% 29.83 in 4.0 mi South 3.5 mph - 0.04 in Rain Light Rain
2:51 AM 64.0 °F - 62.1 °F 93% 29.81 in 7.0 mi South 3.5 mph - 0.04 in Rain Light Rain
3:02 AM 64.4 °F - 62.6 °F 94% 29.82 in 5.0 mi South 3.5 mph - 0.00 in Rain Light Rain
3:29 AM 64.4 °F - 62.6 °F 94% 29.81 in 4.0 mi Calm Calm - 0.02 in Rain Light Rain
3:51 AM 64.0 °F - 63.0 °F 96% 29.80 in 4.0 mi South 3.5 mph - 0.03 in Rain Light Rain
4:32 AM 64.4 °F - 62.6 °F 94% 29.81 in 3.0 mi South 4.6 mph - 0.06 in Rain Rain
4:39 AM 64.4 °F - 62.6 °F 94% 29.81 in 2.5 mi SSE 4.6 mph - 0.09 in Rain Rain
4:48 AM 64.4 °F - 62.6 °F 94% 29.81 in 3.0 mi South 4.6 mph - 0.11 in Rain Rain
4:51 AM 64.0 °F - 63.0 °F 96% 29.80 in 3.0 mi Variable 4.6 mph - 0.12 in Rain Rain
5:31 AM 64.4 °F - 62.6 °F 94% 29.82 in 1.8 mi South 3.5 mph - 0.12 in Rain Heavy Rain
5:41 AM 64.4 °F - 62.6 °F 94% 29.82 in 3.0 mi South 4.6 mph - 0.13 in Rain Light Rain
5:51 AM 64.0 °F - 63.0 °F 96% 29.81 in 5.0 mi South 3.5 mph - 0.13 in Rain Light Rain
6:51 AM 64.0 °F - 63.0 °F 96% 29.81 in 3.0 mi Variable 3.5 mph - 0.02 in Rain Light Rain
7:51 AM 64.0 °F - 63.0 °F 96% 29.82 in 4.0 mi Calm Calm - 0.00 in   Overcast
8:04 AM 64.4 °F - 62.6 °F 94% 29.83 in 2.5 mi Calm Calm - N/A   Overcast
8:18 AM 64.4 °F - 62.6 °F 94% 29.82 in 1.8 mi Calm Calm - N/A   Overcast
8:47 AM 64.4 °F - 62.6 °F 94% 29.82 in 2.5 mi Calm Calm - N/A   Overcast
8:51 AM 64.9 °F - 64.0 °F 97% 29.81 in 3.0 mi Calm Calm - N/A   Overcast
9:46 AM 66.2 °F - 64.4 °F 94% 29.82 in 9.0 mi Calm Calm - N/A   Overcast
9:51 AM 66.9 °F - 64.9 °F 93% 29.81 in 10.0 mi Calm Calm - N/A   Overcast
10:51 AM 70.0 °F - 64.9 °F 84% 29.81 in 10.0 mi Calm Calm - N/A   Overcast
11:30 AM 73.4 °F - 66.2 °F 78% 29.80 in 10.0 mi Variable 3.5 mph - N/A   Partly Cloudy
11:51 AM 75.0 °F - 64.9 °F 71% 29.80 in 10.0 mi WSW 4.6 mph - N/A   Scattered Clouds
12:51 PM 75.9 °F - 64.0 °F 67% 29.78 in 10.0 mi Calm Calm - N/A   Mostly Cloudy
12:59 PM 78.8 °F - 64.4 °F 61% 29.79 in 10.0 mi Variable 5.8 mph - N/A   Mostly Cloudy
1:51 PM 79.0 °F - 63.0 °F 58% 29.77 in 10.0 mi Variable 3.5 mph - N/A   Partly Cloudy
2:51 PM 81.0 °F 81.6 °F 60.1 °F 49% 29.76 in 10.0 mi Variable 6.9 mph - N/A   Partly Cloudy
3:51 PM 82.0 °F 81.7 °F 57.0 °F 42% 29.76 in 10.0 mi West 8.1 mph - N/A   Scattered Clouds
4:51 PM 80.1 °F 79.9 °F 53.1 °F 39% 29.75 in 10.0 mi Variable 4.6 mph - N/A   Clear
5:51 PM 80.1 °F 79.9 °F 53.1 °F 39% 29.76 in 10.0 mi Variable 4.6 mph - N/A   Clear
6:51 PM 78.1 °F - 55.0 °F 45% 29.78 in 10.0 mi Variable 3.5 mph - N/A   Clear
7:51 PM 73.9 °F - 57.0 °F 55% 29.80 in 10.0 mi Calm Calm - N/A   Mostly Cloudy
8:51 PM 72.0 °F - 59.0 °F 64% 29.82 in 10.0 mi Calm Calm - N/A   Scattered Clouds
9:51 PM 68.0 °F - 60.1 °F 76% 29.83 in 10.0 mi Calm Calm - N/A   Partly Cloudy
10:51 PM 66.9 °F - 60.1 °F 79% 29.83 in 10.0 mi Calm Calm - N/A   Scattered Clouds
11:51 PM 66.0 °F - 59.0 °F 78% 29.82 in 10.0 mi Calm Calm - N/A   Scattered Clouds